Regional Weather Roundup
Issued by NWS

Home | Current Version | Previous Version | Graphics & Text | Print | Product List | Glossary Off
Versions: 1 2 3 4 5 6 7 8 9 10 11 12 13 14 15 16 17 18 19 20 21 22 23 24 25 26 27 28 29 30 31 32 33 34 35 36 37 38 39 40 41 42 43 44 45 46 47 48 49 50

000
ASUS43 KMKX 021321
RWRWI

WISCONSIN REGIONAL WEATHER ROUNDUP
NATIONAL WEATHER SERVICE MILWAUKEE/SULLIVAN WI
800 AM CDT WED SEP 02 2015

NOTE: "FAIR" INDICATES FEW OR NO CLOUDS BELOW 12,000 FEET WITH NO
SIGNIFICANT WEATHER AND/OR OBSTRUCTIONS TO VISIBILITY.

WIZ001-002-006>008-014>016-023>028-021400-
NORTHWEST WISCONSIN

CITY           SKY/WX    TMP DP  RH WIND       PRES   REMARKS
SUPERIOR ARPT  DRIZZLE   62  61  97 S8        29.99R
ASHLAND        LGT RAIN  68  67  96 S8        29.96S FOG
HAYWARD        RAIN      66  64  93 SW5       30.02R FOG
SIREN          LGT RAIN  66  64  94 E5        29.96F
CUMBERLAND     DRIZZLE   64  63  94 CALM      29.99F
RICE LAKE      RAIN      66  64  91 CALM      30.00S
CHETEK         LGT RAIN N/A N/A N/A CALM      29.99R
LADYSMITH      LGT RAIN  67  65  93 NE8       30.01F
EAU CLAIRE     CLOUDY    73  71  93 CALM      29.97R
MENOMONIE      CLOUDY    72  71  97 CALM      29.98R
NEW RICHMOND   LGT RAIN  70  69  98 CALM      29.96S
OSCEOLA        CLOUDY    70  70 100 E7        29.97S
$$

WIZ003>005-009-010-017-018-021400-
NORTH CENTRAL WISCONSIN

CITY           SKY/WX    TMP DP  RH WIND       PRES   REMARKS
MANITOWISH WTR TSTM      64  64 100 W5        30.06R
ARBOR VITAE    TSTM      67  64  90 NW21G31   30.05R
WOODRUFF       TSTM      67  64  90 NW21G31   30.05R
RHINELANDER    CLOUDY    71  70  96 SW6       30.01R FOG
EAGLE RIVER    FOG       68  68 100 CALM      29.99F VSB 3/4
LAND O LAKES   TSTM      64  64  99 N3        30.02R VSB 1
PHILLIPS       RAIN      66  64  94 W7        30.04R
TOMAHAWK       CLOUDY    70  69  97 CALM      30.01R FOG
MEDFORD        CLOUDY    71  71  99 SW5       30.01R FOG
MERRILL          N/A     68  68 100 CALM      30.00S FOG
$$

WIZ029-030-035-036-043>047-021400-
CENTRAL WISCONSIN

CITY           SKY/WX    TMP DP  RH WIND       PRES   REMARKS
WAUSAU         CLOUDY    72  71  97 SW3       29.99R FOG
MOSINEE        MOSUNNY   72  72 100 S6        30.01S FOG
MARSHFIELD     CLOUDY    72  69  90 S3        30.00S FOG
STEVENS POINT  PTSUNNY   72  71  96 S5        30.01S FOG
WAUPACA        MOSUNNY   74  73  96 S3        30.00S FOG
WAUTOMA        MOSUNNY   73  73 100 CALM      30.02R FOG
WISC RAPIDS    PTSUNNY   74  70  87 SW5       30.01S FOG
CAMP DOUGLAS   PTSUNNY   70  70 100 SE3       29.99S
$$

WIZ011>013-019>022-031-037>040-048>050-021400-
NORTHEAST WISCONSIN

CITY           SKY/WX    TMP DP  RH WIND       PRES   REMARKS
ANTIGO         CLOUDY    70  70 100 SW3       30.02R FOG
SHAWANO        CLOUDY    73  71  95 CALM      29.99S FOG
OCONTO         MOSUNNY   72  72 100 CALM      29.98S
STURGEON BAY   SUNNY     73  72  94 CALM      30.01S
GREEN BAY      SUNNY     74  72  93 CALM      29.99S FOG
MANITOWOC      SUNNY     76  72  87 MISG      30.00S
APPLETON       PTSUNNY   75  73  94 S8        29.99S
CLINTONVILLE   MOSUNNY   70  70 100 CALM      29.99S FOG
OSHKOSH        SUNNY     74  70  87 S7        30.01R FOG
$$

WIZ032>034-041-042-053>061-021400-
SOUTHWEST WISCONSIN

CITY           SKY/WX    TMP DP  RH WIND       PRES   REMARKS
LA CROSSE      PTSUNNY   75  69  81 S7        29.96S
SPARTA         CLOUDY    69  67  94 CALM      29.98S
VIROQUA          N/A     73  69  89 S7        30.01S
BOSCOBEL       PTSUNNY   70  69  97 E3        29.99F FOG
PRAIRIE DU CHI PTSUNNY   74  67  79 E5        29.98F
PLATTEVILLE    CLOUDY    70  69  96 SE7       30.04S
$$

WIZ056-057-062-063-064-067-068-021400-
SOUTH CENTRAL WISCONSIN

CITY           SKY/WX    TMP DP  RH WIND       PRES   REMARKS
REEDSBURG      MOSUNNY   71  69  94 CALM      30.01S
BARABOO/DELLS  MOSUNNY   72  67  86 CALM      30.02S
LONE ROCK      MOSUNNY   71  68  90 E3        30.02S FOG
MINERAL POINT  MOSUNNY   72  70  94 S6        30.05S FOG
MADISON        PTSUNNY   73  69  87 S6        30.03R
MIDDLETON      SUNNY     74  69  85 CALM      30.04S
WATERTOWN      MOSUNNY   71  71 100 S3        30.04S FOG
MONROE         MOSUNNY   72  68  88 SW7       30.06R
JANESVILLE     SUNNY     72  70  94 CALM      30.05R FOG
$$

WIZ051-052-058>065-066-070>072-021400-
SOUTHEAST WISCONSIN

CITY           SKY/WX    TMP DP  RH WIND       PRES   REMARKS
MILWAUKEE      MOSUNNY   75  68  78 SW5       30.04R
WAUKESHA       MOSUNNY   72  68  88 SW3       30.06R
MILWAUKEE/TIMM SUNNY     73  66  78 SW5       30.05R
RACINE         MOSUNNY   75  68  78 CALM      30.06R
BURLINGTON     MOSUNNY   69  69  98 SW3       30.05S
KENOSHA        SUNNY     74  69  85 SW6       30.05R
FOND DU LAC    SUNNY     73  71  93 S5        30.02R
SHEBOYGAN      SUNNY     75  72  90 SW7       30.02R
WEST BEND      SUNNY     72  68  88 CALM      30.03F
JUNEAU         SUNNY     71  70  95 S6        30.05S FOG
$$

LSZ147-162-021400-
LAKE SUPERIOR

STATION/POSITION TIME  TEMP    WIND        PRES    WAVE
                       AIR SEA DIR/SP/G            HT/PER
                 (UTC) (F)     (DEG/KT/KT) (MB)    (FT/S)
W MID LAKE BUOY  1250   57 56  110/  4/  6 1014.6R   0
DEVILS ISLAND    1300   60      70/  7/  8 1014.7R
PORT WING        1200   63      70/  1/  3 1013.5F
SAXON HARBOR     1200   71     210/  5/ 10 1014.2
$$

LMZ867-665-643>646-021400-
LAKE MICHIGAN

STATION/POSITION TIME  TEMP    WIND        PRES    WAVE
                       AIR SEA DIR/SP/G            HT/PER
                 (UTC) (F)     (DEG/KT/KT) (MB)    (FT/S)
CHAMBERS ISLAND  1200   68     190/  2/  5 1014.9R
N MID LAKE BUOY  1250   66 65  200/  4/  6 1014.9R   1/ 4
NORTHPORT PIER   1200   65      CALM  /  1 1014.9R
SISTER BAY       1219   70        CALM       N/A
ALGOMA LAKESHORE 1244             CALM       N/A
KEWAUNEE LAKESHO 1300   60     190/  1/  2 1014.4S
SHEBOYGAN LAKESH 1300   76     250/  8/ 10 1016.2R
PORT WASHINGTON  1200   75     280/  4/  7 1016.9R
ATWATER BUOY     1300   63 52  140/  6/  8 1018.1R
MILWAUKEE LAKESH 1310   77     250/  8/  9   N/A
S MID LAKE BUOY  1250   72 70  210/ 10/ 12 1016.8R   1
KENOSHA   LAKESH 1300   74     230/  5/  7 1016.9S
$$

TC  - TEMPERATURE IN CELSIUS
VSB - VISIBILITY IN STATUTE MILES
WCI - WIND CHILL INDEX
HX  - HEAT INDEX



USA.gov is the U.S. government's official web portal to all federal, state and local government web resources and services.